sat.trackr.live / text

‹ back to catalog

GRACE-FO 2

NORAD 43477 · 2018-047B

PAYLOAD ACTIVE UNKNOWN

§ Identity

Operator
Country
US
Launch date
2018-05-22
Launch site
AFWTR
Launch vehicle
Mass (kg)
RCS (m²)

External: N2YO · Heavens-Above · Gunter

§ Orbital elements

Epoch: 2026-09-20T04:20:25.675008Z

Period
93.51 min
Inclination
88.9997°
Eccentricity
0.0009847
Mean motion
15.39988749 rev/d
Perigee alt
439.4 km
Apogee alt
452.9 km
Semi-major
6,824.3 km
B*
7.4177e-5
RAAN
184.9155°
Arg perigee
93.8288°
Mean anomaly
266.4094°
Rev number
46,440

§ Raw data

GRACE-FO 21 43477U 18047B   26263.18085272  .00002994  00000+0  74177-4 0  99902 43477  88.9997 184.9155 0009847  93.8288 266.4094 15.39988749464408

JSON: /api/v1/satellites/43477 · /tle

For live sub-satellite position, see the globe view (requires WebGL).

§ Visibility from observer

Set your observer location to see the next 7 days of passes ≥ 10°. The values pass through the URL so the page stays shareable.

No JS? Fill the form by hand. The geolocation button needs JavaScript.